STARLINK-4327, 53079

Orbit data source: Space-Track

STARLINK-4327, 53079 is a payload satellite owned by SpaceX/Seattle (US) in SSO that was launched on Mon, 11 Jul 2022 UTC via an FALCON 9 launch vehicle from the Air Force Western Test Range (AFWTR). Payload-class satellites include a variety of spacecraft equipped with specific instruments for various scientific and technological missions. These include communications satellites like Starlink; space stations such as the ISS; scientific satellites like the Hubble; Earth observation satellites from companies like Planet Labs, Umbra, and HawkEye 360; GPS; miniature CubeSats for education and research; and military/defense satellites.

Loading next visibility...
Identifier
53079, 2022-077AN
Orbit
SSO
Country
Flag of USUS
Related business
Manufacturer
SpaceX/Seattle
Mission
Operational Commercial Communications
Bus & Motor
STARLINK, Unknown motor
Mass
297 kg wet, ~275 kg dry
Launch date (UTC)
2022-07-11 (3 years ago)
Launch vehicle
FALCON 9
Launch site
Air Force Western Test Range (AFWTR)
Object type
Payload
Rocket body
Debris
Shape & HBR
Box + 1 Pan, 10.1 m
Radar Cross Section
13.562 m², Large (>1 m²)

Expand to show TLE details & history
Last TLE update: 16 hours ago

TLE from 16 hours ago
0 STARLINK-4327
1 53079U 22077AN  25348.94198403  .00000291  00000-0  24405-4 0  9993
2 53079  97.6009 167.6971 0001601  84.1090 276.0319 15.05644957188230
Epoch: 2025-12-14T22:36Z
TLE epoch observation values (Epoch: 2025-12-14T22:36:27.420Z)
Latitude
-0.00003°
Longitude
104.73518°
Altitude
552.475 km
Speed
7.586 km/s
True Right ascension
11h 10m 47s
True Declination
0° 00' 00"
Sunlit
Object was in daylight at epoch
Visualization orbit readout
Latitude
Unknown
Longitude
Unknown
Altitude
Unknown
Speed
Unknown
Apparent Right ascension
Unknown
Apparent Declination
Unknown
Sunlit
N/A
Visualization observer readout
Local Sidereal Time
13:20:33
Azimuth
Unknown
Elevation
Unknown
Doppler factor
Unknown
Orbital elements
Apogee altitude
547.629 km
Perigee altitude
545.411 km
Semi-major axis
6,924.657 km
Eccentricity
0.00016
Inclination
97.6009°
RAAN
167.6971°
Arg. of periapsis
84.109°
True anomaly
276.01366°
Mean anomaly
276.0319°
Eccentric anomaly
276.02278°
Mean motion
3.76657 °/min
Orbital period
95.58 mins
BSTAR
0.000024405
Loading maneuver chart data...
Computing Atmospheric mass density...
Loading historical data...
Loading historical data...
Loading historical data...
Loading historical data...
Loading historical data...
Loading historical data...
Loading historical data...

Documentation

Showing up to 5 results
|